Location: Bakhuizen
(52.8696°N, 5.4575°E)
Time: 07:57:30
(UTC+00:00)

ALOS 2 - Pass Details

Date: 11 May 2021
Orbit: 630 x 632 km, 97.9° (Epoch: 20 June)

Event Time Altitude Azimuth Distance (km) Brightness Sun altitude
Exits shadow 22:41:29 36° 146° (SE) 1,005 3.1 -18.1°
Maximum altitude 22:43:11 71° 72° (ENE) 675 2.7 -18.1°
Drops below altitude 10° 22:47:35 10° 349° (N) 2,028 6.5 -18.3°
Sets 22:49:48 0° 348° (NNW) 2,941 7.8 -18.3°
